Погода Черновцы

Поиск расширенной информации на нашем сайте:

Полезная информация:

Новости сайта



02.01.2020
Опубликован Долгосрочный прогноз погоды по городам России и ближнего зарубежья на январь 2020 года.
Карты: Прогноз на январь и февраль 2020 года, Сравнение прогнозируемой аномалии приземной температуры воздуха на январь 2020 года по разным моделям.




Погода Черновцы - сегодня

Время (UTC), дата Ветер
(°,м/с) 
Видим.   Явления Облачность Т
(°С)
Тd
(°С)
f(%) Тe
(°С)
Pmin
(гПа)
dP
(гПа)
Po
(мм)
O2
(г/м3)
Тmin Tmax R s Состояние
почвы
15 27.03.20 050 (СВ) 50000 м    3/0 верхняя 
[Ci fib]
+15.1 -4.7 25 +15  1021.5  -2.2  744  285           
18 27.03.20 030 (СВ) 17000 м    6/0 средняя 
[Ac trans]
+11 -4.1 34 +11  1022  744  289           
21 27.03.20 тихо ()   12000 м    6/0 средняя 
[Ac trans]
+6.8 -3.9 46 +7  1021.8  -0.6  744  293           
00 28.03.20 310 (СЗ) 9000 м  дым  6/0 средняя 
[Ac trans]
+3.9 -1.3 69 +3  1020.7  -1.4  743  295           
03 28.03.20 320 (СЗ) 15000 м    6/0 средняя 
[Ac trans]
+2.3 -1 79 1019.1  -1.7  741  296           
06 28.03.20 310 (СЗ) 17000 м    9/0 средняя 
[Ac trans]
+3.8 -0.5 73 +3  1018.9  741  295  +2         
09 28.03.20 320 (СЗ) 20000 м    9/0 средняя 
[Ac trans]
+9.4 +1.2 57 +8  1016.8  -1.4  740  288           
12 28.03.20 290 (З) 18000 м    8/0 средняя, верхняя 
[Ac trans|Ci fib]
+14.7 -2.8 30 +15  1014  -2.2  739  283           
15 28.03.20 290 (З) 40000 м    8/0 средняя, верхняя 
[Ac trans|Ci fib]
+15 -3.8 27 +16  1012.3  -1.7  737  282           
18 28.03.20 250 (З) 18000 м    8/0 средняя 
[Ac trans]
+12.5 -2.8 34 +14  1011.9  -0.6  737  284    +16       
21 28.03.20 тихо ()   15000 м    8/0 средняя 
[Ac trans]
+10.3 -1.3 44 +10  1011.4  -0.7  737  286           
00 29.03.20 310 (СЗ) 15000 м    6/0 верхняя 
[Ci fib]
+5.4 +0.3 70 +4  1010.8  -1.1  736  291           
03 29.03.20 310 (СЗ) 19000 м    6/0 верхняя 
[Ci fib]
+3.2 -0.9 74 +1  1010.1  -0.9  735  293           
06 29.03.20 320 (СЗ) 25000 м    ясно 
+3.7 -1.2 70 +1  1009.7  -0.3  735  292  +2.5  +0.4      сухая 
09 29.03.20 320 (СЗ) 25000 м    ясно 
+12.2 -1.8 38 +12  1008.5  -0.3  735  283           
12 29.03.20 310 (СЗ) 25000 м    6/0 верхняя 
[Ci fib]
+16.7 -5.5 21 +17  1006.3  -1.7  733  279           
15 29.03.20 290 (З) 30000 м    5/0 верхняя 
[Ci fib]
+16.6 -5.7 21 +16  1006  -0.3  733  279           
18 29.03.20 300 (СЗ) 13000 м    6/0 средняя, верхняя 
[Ac trans|Ci fib]
+13.6 -4.4 28 +14  1007.5  1.1  734  282    +17.4       
21 29.03.20 320 (СЗ) 10 км    ясно 
+8.8 -2.9 44 +8  1008.7  0.7  734  287           
00 30.03.20 300 (СЗ) 20000 м    ясно 
+10 +0.2 50 +8  1009.2  0.6  735  286           
03 30.03.20 300 (СЗ) 17000 м    5/0 верхняя 
[Ci fib]
+7.7 +1.1 63 +6  1010.7  1.3  736  288           
06 30.03.20 300 (СЗ) 23000 м    10/5 570 м кучево-дожд., средняя 
[Cb calv|Ac As]
+5.4 +0.6 71 +3  1013.3  2.2  737  291  +5.4  +0.5       
09 30.03.20 310 (СЗ) 15000 м  в посл. час ливневой дождь  10/6 420 м кучево-дожд., средняя 
[Cb calv|Ac und]
+3.4 +0.5 81 1015.4  1.9  739  294           
12 30.03.20 300 (СЗ) 40000 м  в посл. час ливневой снег  10/6 570 м кучево-дожд., средняя 
[Cb calv|Ac und]
+2.3 -1.6 75 -1  1016.6  740  296           
15 30.03.20 320 (СЗ) 12000 м  слаб. ливневой дождь со снегом  10/6 1000 м кучево-дожд., средняя 
[Cb calv|Ac und]
+1.8 -2.9 71 -2  1017.8  1.1  740  297           
Время (UTC), дата Ветер
(°,м/с) 
Видим.   Явления Облачность Т
(°С)
Тd
(°С)
f(%) Тe
(°С)
Pmin
(гПа)
dP
(гПа)
Po
(мм)
O2
(г/м3)
Тmin Tmax R s Состояние
почвы

Для получения пояснительной информации подведите курсор к названию столбца.

ПОГОДА Черновцы - архив

Всё, что Вы хотите узнать о погоде Черновцы - удобно и подробно!

Выберите нужную дату (начиная с 1 января 2019* года) и нажмите кнопку "Найти".
Будут отображены архивные сводки погоды по пункту Черновцы, начиная с указанной даты.


Отображать данные в формате CSV (для использования в таблицах Excel)


Внимание! Наш архив погоды предназначен исключительно для личного некоммерческого использования в познавательных целях. Если Вам необходимы официальные справки о состоянии погоды (для производственных, юридических, коммерческих и т.п. целей), обращайтесь в органы Росгидромета.

*Примечание: данная дата относится к архиву по метеостанциям СССР (Россия, СНГ, Балтия).
Архив по метеостанциям Зарубежной Европы и Азии (кроме Китая) хранится 10 дней, по другим регионам земного шара (Китай, Африка, Америка, Австралия, Океания) - 1 день.

Черновцы - район местоположения метеостанции


Название, широта, долгота, высота метеостанции:
Черновцы 48.4°ш. 25.9°д. 246 м над ур. моря [Украина]

Дополнительная информация

В oтличие oт бoльшинства пoгoдных сайтoв мы публикуем пoдрoбную метеoинфoрмацию в детальнoм прoфессиoнальнoм фoрмате.

Характеристики температуры и влажнoсти вoздуха измеряются на высoте 2 м в тени вдали oт зданий и деревьев.
Скoрoсть ветра измеряется на высoте 10 м (на урoвне рoста челoвека скoрoсть ветра ниже в 1.5-2 раза). Если метеoстанция нахoдится в гoрoде или в лесу, тo скoрoсть ветра занижена на 2-4 м/с пo сравнению с oткрытым местoм. Скoрoсть ветра над акватoриями крупных рек и oзёр, а также на вершинах хoлмoв на 2-5 м/с выше, чем в oбычных услoвиях.
Атмoсфернoе давление в разных тoчках местнoсти мoжет значительнo oтличаться oт давления на метеoстанции, в зависимoсти oт услoвий рельефа (при пoдъёме на 10 м давление пoнижается примернo на 1 мм рт.ст.).